Regional Weather Roundup
Issued by NWS Green Bay, WI

Home | Current Version | Previous Version | Graphics & Text | Print | Product List | Glossary Off
Versions: 1 2 3 4 5 6 7 8 9 10 11 12 13 14 15 16 17 18 19 20 21 22 23 24 25 26 27 28 29 30 31 32 33 34 35 36 37 38 39 40 41 42 43 44 45 46 47 48 49 50

133
ASUS43 KGRB 210711
RWRGRB

NORTH-CENTRAL AND NORTHEAST WISCONSIN REGIONAL WEATHER ROUNDUP
NATIONAL WEATHER SERVICE GREEN BAY WI
200 AM CDT SAT APR 21 2018

WIZ005-009-010>012-018-019-210800-
NORTH CENTRAL WISCONSIN

CITY           SKY/WX    TMP DP  RH WIND       PRES   REMARKS
IRONWOOD       FAIR      28  22  78 CALM      30.40F
MANITOWISH WTR FAIR      27  22  79 CALM      30.40S
ARBOR VITAE    FAIR      32  22  65 CALM      30.40F
EAGLE RIVER    FAIR      26  19  74 CALM      30.39F
LAND O LAKES   FAIR      27  19  72 CALM      30.41F
RHINELANDER    FAIR      30  17  58 CALM      30.41F
PHILLIPS       FAIR      26  23  89 CALM      30.40F
ANTIGO         FAIR      28  25  89 CALM      30.41F
TOMAHAWK       FAIR      24  18  77 CALM      30.42S
MERRILL        FAIR      25  20  82 CALM      30.43F
$$

WIZ013-073-210800-
NORTHEAST WISCONSIN

CITY           SKY/WX    TMP DP  RH WIND       PRES   REMARKS
IRON MOUNTAIN  FAIR      29  23  78 NW5       30.38F
MARINETTE      FAIR      36  21  54 SW5       30.43F
OCONTO         FAIR      26  21  80 CALM      30.43F
$$

WIZ017-030-035>037-045-210800-
CENTRAL WISCONSIN

CITY           SKY/WX    TMP DP  RH WIND       PRES   REMARKS
MEDFORD        FAIR      27  21  76 CALM      30.40F
WAUSAU         FAIR      29  21  72 CALM      30.40F
MOSINEE        FAIR      32  18  55 CALM      30.42F
MARSHFIELD     FAIR      32  21  64 CALM      30.40F
WISC RAPIDS    FAIR      29  18  63 CALM      30.43F
STEVENS POINT  FAIR      26  19  76 CALM      30.42F
WAUPACA        FAIR      31  23  73 CALM      30.43F
SHAWANO        FAIR      31  21  65 CALM      30.43S
CLINTONVILLE   FAIR      29  20  66 CALM      30.43S
WAUTOMA        FAIR      27  24  89 CALM      30.44F
$$

WIZ038-039-048-051-210800-
FOX VALLEY

CITY           SKY/WX    TMP DP  RH WIND       PRES   REMARKS
NWS GREEN BAY  FAIR      30  23  75 CALM      30.44S
APPLETON       FAIR      36  12  38 CALM      30.41F
OSHKOSH        FAIR      39  19  44 SW8       30.43F
FOND DU LAC    FAIR      29  20  69 S3        30.43F
$$

WIZ022-050-052-210800-
EAST CENTRAL WISCONSIN

CITY           SKY/WX    TMP DP  RH WIND       PRES   REMARKS
EPHRAIM        FAIR      41  17  38 SW3       30.42F
WASHINGTON ISL FAIR      32  26  78 CALM      30.42F
STURGEON BAY   FAIR      36  22  56 CALM      30.44F
MANITOWOC      FAIR      30  26  85 CALM      30.45S
SHEBOYGAN      FAIR      29  27  92 CALM      30.44S
$$

LMZ563-521-522-541>543-210800-
LAKESHORE

STATION/POSITION TIME  TEMP    WIND        PRES    VSBY  WAVE
                       AIR SEA DIR/SP/G                  HT/PER
                 (UTC) (F)     (DEG/KT/KT) (MB)    (MI)  (FT/S)
SHEBOYGAN LKSHOR 0700   40     260/  4/  4 1031.2F
KEWAUNEE LKSHORE 0642          310/  3/  3 1029.9F
NORTHPORT PIER   0640   34                 1030.1F
SISTER BAY LKSHO 0657   42     170/  4/  5   N/A
MENOMINEE LKSHOR 0642          180/  7/  8 1029.9F
$$




USA.gov is the U.S. government's official web portal to all federal, state and local government web resources and services.